OIIS  Semnan Airport

Add Bookmark

Semnan, Iran

Status
Operational
Latitude Longitude
35° 35' 27" N 53° 29' 42" E
35.591099 53.495098
Local (DST + 5) UTC (GMT + 4)
Sep 1, 2014 03:45 Sep 1, 2014 11:15
Sunrise-Sunset Local UTC
Begin Civil Twilight 06:00 01:30
Sunrise 06:26 01:56
Sunset 07:24 14:54
End Civil Twilight 07:51 15:21

Current Weather

METAR Observed VFR
OIIS 010800Z 02002KT CAVOK 32/04 Q1015 Mon, Sep 1, 2014 @ 08:00 UTC
(3 Hours, 15 Minutes ago)
Visual Flight Rules
Wind Visibility Clouds Conditions
020° at 2 knots (4 kph) 10 km or more
  • Clear skies
  • No significant weather
Temperatures Readings Precipitation
Current Temp 32°C (90°F)
Dewpoint 4°C (39°F)
Humidity 17%
Altimeter 29.97"Hg
Sea Level Pressure 1015mb
Field Elevation 3658.14'
None Recorded

Additional weather within a 185.2km radius of OIIS

Map ICAO Location
OINZ 119.3km N (347°)
OINB 146.5km N (329°)
OING 167.4km N (029°)

24 Hour Weather History

Loading
-

24 Hour Weather Graphs

Loading
-

CheckWX.com is intended as a tool to help pilots better visualize weather data. It is not intended as a substitute for an official weather briefing obtained from a Flight Service Station. CheckWX.com does not meet the FAA requirements for an official pre-flight weather briefing. Therefore, it's important that pilots still call and obtain an official FSS pre-flight weather briefing.